Regional Weather Roundup
Issued by NWS Cleveland, OH

Home | Current Version | Previous Version | Text Only | Print | Product List | Glossary Off
Versions: 1 2 3 4 5 6 7 8 9 10 11 12 13 14 15 16 17 18 19 20 21 22 23 24 25 26 27 28 29 30 31 32 33 34 35 36 37 38 39 40 41 42 43 44 45 46 47 48 49 50

000
ASUS41 KCLE 141610
RWRCLE
OHIO REGIONAL WEATHER ROUNDUP
NATIONAL WEATHER SERVICE WILMINGTON, OH
1100 AM EST THU DEC 14 2017

NOTE: "FAIR" INDICATES FEW OR NO CLOUDS BELOW 12,000 FEET WITH NO
SIGNIFICANT WEATHER AND/OR OBSTRUCTIONS TO VISIBILITY.

OHZ001>008-015>018-024>027-034-035-043-044-141700-
   NORTHWEST OHIO

CITY           SKY/WX    TMP DP  RH WIND       PRES   REMARKS
DEFIANCE       FAIR      15   7  70 NW6       30.07R WCI   6
FINDLAY        FAIR      18   9  68 NW7       30.04R WCI   9
TOLEDO EXPRESS FAIR      16   7  67 NW7       30.06R WCI   6
TOLEDO EXEC    FAIR      17   8  67 W7        30.06R WCI   8
LIMA           CLOUDY    19  14  81 N7        30.03R WCI  10
$$

OHZ009>014-019>023-028>033-038-089-141700-
   NORTHEAST OHIO

CITY           SKY/WX    TMP DP  RH WIND       PRES   REMARKS
CLE-HOPKINS    PTSUNNY   26  14  60 N10       30.01R WCI  16
CLE-LAKEFRONT  CLOUDY    25  15  66 NW9       29.99R WCI  15
CUY CO. ARPT   FLURRIES  25  18  74 NW12      29.98R WCI  14
LORAIN-ELYRIA  LGT SNOW  24  14  65 N7        30.00R WCI  16
ASHTABULA      LGT SNOW  22  14  71 N7        29.96R WCI  13
AKRON-CANTON   LGT SNOW  22  16  78 NW8       29.95R WCI  12
WOOSTER        FAIR      24  12  60 NW9       29.98R WCI  14
MANSFIELD      PTSUNNY   19  14  81 W7        29.99R WCI  10
YOUNGSTOWN     FAIR      23  12  62 N6        29.94R WCI  16
$$

OHZ042-051>053-060>062-070>072-077>081-141700-
  SOUTHWEST OHIO

CITY           SKY/WX    TMP DP  RH WIND       PRES   REMARKS
CINC-COVINGTON CLOUDY    27  18  69 N10       30.01R WCI  17
CINC-LUNKEN    CLOUDY    27  17  66 NE7       30.06R WCI  19
HAMILTON       CLOUDY    25  17  72 N8        30.06R WCI  16
DAYTON         CLOUDY    21  16  81 N8        30.04R WCI  11
WRIGHT-PAT AFB CLOUDY    22  15  73 N8        30.03R WCI  13
DAYTON GENERAL CLOUDY    22  15  75 NW6       30.02R WCI  14
WILMINGTON     CLOUDY    23  16  74 N10       30.00R WCI  12
$$

OHZ036-037-039>041-045>050-054>059-063>069-073>076-082>088-141700-
  CENTRAL AND SOUTHEAST OHIO

CITY           SKY/WX    TMP DP  RH WIND       PRES   REMARKS
COLUMBUS       FLURRIES  25  18  74 N8        30.01S WCI  16
OSU AIRPORT    PTSUNNY   23  18  81 N8        30.01R WCI  14
BOLTON FIELD   PTSUNNY   25  18  74 N8        30.01R WCI  16
RICKENBACK AFB CLOUDY    25  15  67 N6        30.01S WCI  18
NEWARK         CLOUDY    26  14  60 N5        30.00R WCI  20
MARION         CLOUDY    19  13  77 NW10      30.02  WCI   7
LANCASTER      PTSUNNY   27  16  63 N6        30.00S WCI  20
ZANESVILLE     CLOUDY    27  16  63 NW7       29.99R WCI  19
NEW PHILLY     PTSUNNY   25  15  66 NW5       29.99R WCI  19
$$




USA.gov is the U.S. government's official web portal to all federal, state and local government web resources and services.